Regional Weather Roundup
Issued by NWS

Home | Current Version | Previous Version | Text Only | Print | Product List | Glossary Off
Versions: 1 2 3 4 5 6 7 8 9 10 11 12 13 14 15 16 17 18 19 20 21 22 23 24 25 26 27 28 29 30 31 32 33 34 35 36 37 38 39 40 41 42 43 44 45 46 47 48 49 50

000
ASUS45 KSLC 011510
RWRUT

UTAH REGIONAL WEATHER ROUNDUP
NATIONAL WEATHER SERVICE SALT LAKE CITY UT
900 AM MDT MON JUN 01 2015

UTZ001>011-023>025-011600-

NORTHERN UTAH

CITY           SKY/WX    TMP DP  RH WIND       PRES   REMARKS
BRIGHAM CITY   PTSUNNY   70  51  50 CALM      29.91S
HILL AFB       PTSUNNY   70  42  36 SE9       29.94S
LOGAN          SUNNY     61  53  75 N3        29.93S
OGDEN          MOSUNNY   70  44  39 S12       29.91S
PROVO AIRPORT  MOSUNNY   73  46  38 SE9       29.98S
SALT LAKE CITY MOSUNNY   79  37  22 S18G25    29.90S
VERNAL         MOSUNNY   67  45  45 CALM      30.08S
WENDOVER       MOSUNNY   72  45  37 E6        29.89S
HEBER CITY     MOSUNNY   61  45  55 CALM      30.05S
WEST JORDAN    SUNNY     73  43  33 SE15G22   29.95R

$$

UTZ012>022-026-027-011600-

SOUTHERN/CENTRAL UTAH

CITY           SKY/WX    TMP DP  RH WIND       PRES   REMARKS
BLANDING       SUNNY     71  39  31 S7        30.25R
BRYCE CANYON   SUNNY     65  32  29 SE10      30.23F
CEDAR CITY     SUNNY     71  36  27 W10       30.04S
DELTA          SUNNY     75  31  20 S9        29.99R
HANKSVILLE     MOSUNNY   68  36  30 CALM      30.04S
MILFORD        SUNNY     73  37  27 SW8       30.00S
MOAB/CYNLANDS  SUNNY     76  41  28 SE9       30.02R
PRICE          MOSUNNY   71  40  32 S5        30.10S
ST GEORGE      MOSUNNY   81  34  18 CALM      29.94R
KANAB          SUNNY     68  37  32 NW5       30.11S

$$

REGIONAL REPORTS     COLORADO/ARIZONA

CITY           SKY/WX    TMP DP  RH WIND       PRES   REMARKS
CRAIG, CO      MOSUNNY   65  45  48 NE8       30.16F
GRAND JUNCTION SUNNY     71  42  35 SE20G31   30.07F
RIFLE          MOSUNNY   63  46  54 CALM      30.16S
MONTROSE       MOSUNNY   72  40  31 E7        30.18F
CORTEZ         PTSUNNY   70  45  40 CALM      30.20R
PAGE, AZ       SUNNY     78  35  21 CALM      30.03S
GRAND CANYON   SUNNY     69  32  25 SW13      30.21R
KINGMAN        SUNNY     80  31  16 CALM      29.98R
FLAGSTAFF      SUNNY     65  31  28 SW8       30.24S

$$

REGIONAL REPORTS    NEVADA/IDAHO/WYOMING

CITY           SKY/WX    TMP DP  RH WIND       PRES   REMARKS
LAS VEGAS, NV  SUNNY     84  31  14 S18G26    29.82R
ELY            SUNNY     70  44  39 SE16G23   30.03S
ELKO           SUNNY     67  43  41 CALM      29.96R
POCATELLO, ID  SUNNY     63  54  72 N8        29.92R
BURLEY         SUNNY     64  51  62 CALM      29.86F
EVANSTON, WY   MOSUNNY   66  39  37 S7        30.12F
ROCK SPRINGS   LGT RAIN  70  31  23 MISG      30.12F
KEMMERER       MOSUNNY   63  43  48 E3        30.15S

$$



USA.gov is the U.S. government's official web portal to all federal, state and local government web resources and services.